SHT3B EGCC-EGLL

Flight info

Callsign SHT3B
Flight time 0h 29m
Altitude 19000
Route SANBA1Y SANBA N859 HON HON2H
Aircraft A321/M-SDE3FGHIRWY/LB1

Departure

Time 2026-05-05 11:11
Airport Manchester Airport (EGCC)

Arrival

Time 2026-05-05 11:41
Airport London Heathrow Airport (EGLL)
Time Latitude Longitude Altitude Speed Heading
2026-05-05 10:56 53.36865 -2.28836 255 ft 0 kts 134°
2026-05-05 10:59 53.36874 -2.28855 255 ft 4 kts 123°
2026-05-05 10:59 53.36888 -2.28882 255 ft 4 kts 157°
2026-05-05 11:00 53.36905 -2.28876 255 ft 4 kts 224°
2026-05-05 11:00 53.36923 -2.28846 255 ft 4 kts 225°
2026-05-05 11:00 53.36942 -2.28814 255 ft 4 kts 225°
2026-05-05 11:00 53.36958 -2.28788 255 ft 0 kts 225°
2026-05-05 11:03 53.36944 -2.28813 255 ft 7 kts 225°
2026-05-05 11:04 53.36903 -2.28879 255 ft 9 kts 224°
2026-05-05 11:04 53.36850 -2.28968 255 ft 12 kts 225°
2026-05-05 11:04 53.36771 -2.29038 255 ft 14 kts 192°
2026-05-05 11:04 53.36691 -2.28949 255 ft 15 kts 134°
2026-05-05 11:05 53.36628 -2.28884 255 ft 2 kts 156°
2026-05-05 11:05 53.36606 -2.28851 255 ft 8 kts 133°
2026-05-05 11:05 53.36560 -2.28727 255 ft 17 kts 129°
2026-05-05 11:05 53.36462 -2.28559 255 ft 22 kts 134°
2026-05-05 11:06 53.36347 -2.28464 255 ft 15 kts 155°
2026-05-05 11:06 53.36267 -2.28339 255 ft 17 kts 136°
2026-05-05 11:06 53.36182 -2.28195 255 ft 18 kts 134°
2026-05-05 11:06 53.36089 -2.28043 255 ft 19 kts 138°
2026-05-05 11:07 53.35989 -2.27897 255 ft 19 kts 139°
2026-05-05 11:07 53.35865 -2.27854 254 ft 20 kts 184°
2026-05-05 11:07 53.35707 -2.27882 245 ft 25 kts 185°
2026-05-05 11:07 53.35517 -2.27916 238 ft 20 kts 186°
2026-05-05 11:08 53.35423 -2.27976 237 ft 16 kts 221°
2026-05-05 11:08 53.35336 -2.28115 240 ft 19 kts 224°
2026-05-05 11:08 53.35236 -2.28290 232 ft 22 kts 230°
2026-05-05 11:08 53.35132 -2.28507 227 ft 26 kts 232°
2026-05-05 11:09 53.35016 -2.28738 227 ft 27 kts 226°
2026-05-05 11:09 53.34898 -2.28947 223 ft 23 kts 225°
2026-05-05 11:09 53.34782 -2.29163 218 ft 25 kts 230°
2026-05-05 11:09 53.34688 -2.29322 215 ft 7 kts 207°
2026-05-05 11:10 53.34673 -2.29331 214 ft 0 kts 198°
2026-05-05 11:10 53.34639 -2.29345 215 ft 11 kts 186°
2026-05-05 11:10 53.34544 -2.29268 216 ft 19 kts 117°
2026-05-05 11:10 53.34573 -2.29154 216 ft 16 kts 51°
2026-05-05 11:11 53.34732 -2.28829 222 ft 68 kts 50°
2026-05-05 11:11 53.35184 -2.27890 237 ft 137 kts 51°
2026-05-05 11:11 53.35862 -2.26488 639 ft 159 kts 47°
2026-05-05 11:11 53.36572 -2.25046 1425 ft 162 kts 46°
2026-05-05 11:12 53.37301 -2.23555 1980 ft 175 kts 54°
2026-05-05 11:12 53.37548 -2.21440 2252 ft 206 kts 99°
2026-05-05 11:12 53.36728 -2.19352 2467 ft 233 kts 143°
2026-05-05 11:12 53.35140 -2.18343 2651 ft 259 kts 169°
2026-05-05 11:13 53.33965 -2.17958 3040 ft 267 kts 170°
2026-05-05 11:13 53.32109 -2.17538 3918 ft 270 kts 178°
2026-05-05 11:13 53.30221 -2.17616 4785 ft 274 kts 184°
2026-05-05 11:13 53.28307 -2.17807 5635 ft 276 kts 184°
2026-05-05 11:14 53.26384 -2.18044 6525 ft 278 kts 185°
2026-05-05 11:14 53.24445 -2.18316 7292 ft 282 kts 186°
2026-05-05 11:14 53.22475 -2.18614 8060 ft 285 kts 186°
2026-05-05 11:14 53.20488 -2.18924 8837 ft 288 kts 187°
2026-05-05 11:15 53.18475 -2.19242 9625 ft 292 kts 188°
2026-05-05 11:15 53.16438 -2.19551 10308 ft 299 kts 185°
2026-05-05 11:15 53.14271 -2.19377 10483 ft 325 kts 173°
2026-05-05 11:15 53.12015 -2.18358 10687 ft 346 kts 159°
2026-05-05 11:16 53.09780 -2.16749 11229 ft 353 kts 158°
2026-05-05 11:16 53.07510 -2.15141 11875 ft 357 kts 158°
2026-05-05 11:16 53.05202 -2.13541 12506 ft 362 kts 159°
2026-05-05 11:16 53.02866 -2.11942 13164 ft 365 kts 159°
2026-05-05 11:17 53.00506 -2.10333 13848 ft 368 kts 159°
2026-05-05 11:17 52.98129 -2.08708 14459 ft 370 kts 159°
2026-05-05 11:17 52.95747 -2.07074 15103 ft 372 kts 160°
2026-05-05 11:17 52.93348 -2.05423 15715 ft 374 kts 160°
2026-05-05 11:18 52.90969 -2.03785 16322 ft 376 kts 160°
2026-05-05 11:18 52.88546 -2.02120 16925 ft 379 kts 160°
2026-05-05 11:18 52.86102 -2.00450 17515 ft 382 kts 160°
2026-05-05 11:18 52.83637 -1.98768 18106 ft 384 kts 160°
2026-05-05 11:19 52.81157 -1.97078 18639 ft 387 kts 160°
2026-05-05 11:19 52.78656 -1.95375 18936 ft 389 kts 160°
2026-05-05 11:19 52.76152 -1.93669 19016 ft 391 kts 160°
2026-05-05 11:19 52.73635 -1.91955 19017 ft 392 kts 159°
2026-05-05 11:20 52.71108 -1.90236 19037 ft 392 kts 159°
2026-05-05 11:20 52.68605 -1.88445 19035 ft 393 kts 154°
2026-05-05 11:20 52.66288 -1.86040 19026 ft 395 kts 149°
2026-05-05 11:20 52.63990 -1.83547 19026 ft 395 kts 148°
2026-05-05 11:21 52.61702 -1.81059 19027 ft 395 kts 148°
2026-05-05 11:21 52.59415 -1.78576 19027 ft 395 kts 148°
2026-05-05 11:21 52.57121 -1.76091 19029 ft 395 kts 149°
2026-05-05 11:21 52.54823 -1.73604 19031 ft 395 kts 149°
2026-05-05 11:22 52.52530 -1.71121 19032 ft 395 kts 148°
2026-05-05 11:22 52.50239 -1.68640 19031 ft 395 kts 148°
2026-05-05 11:22 52.47947 -1.66161 19037 ft 395 kts 148°
2026-05-05 11:22 52.45651 -1.63686 19040 ft 394 kts 149°
2026-05-05 11:23 52.43356 -1.61221 19043 ft 394 kts 149°
2026-05-05 11:23 52.41068 -1.58760 19042 ft 394 kts 149°
2026-05-05 11:23 52.38778 -1.56297 19041 ft 394 kts 149°
2026-05-05 11:23 52.36518 -1.53868 19038 ft 394 kts 149°
2026-05-05 11:24 52.34186 -1.51364 19008 ft 401 kts 149°
2026-05-05 11:24 52.31841 -1.48853 19003 ft 404 kts 149°
2026-05-05 11:24 52.29512 -1.46367 19002 ft 405 kts 148°
2026-05-05 11:24 52.27154 -1.43855 18996 ft 405 kts 148°
2026-05-05 11:25 52.24800 -1.41347 19001 ft 403 kts 148°
2026-05-05 11:25 52.22455 -1.38850 19000 ft 403 kts 148°
2026-05-05 11:25 52.20106 -1.36353 19002 ft 403 kts 148°
2026-05-05 11:25 52.17759 -1.33863 19004 ft 403 kts 148°
2026-05-05 11:26 52.15407 -1.31371 19001 ft 403 kts 148°
2026-05-05 11:26 52.13058 -1.28885 18953 ft 400 kts 148°
2026-05-05 11:26 52.10769 -1.26460 18775 ft 384 kts 148°
2026-05-05 11:26 52.08610 -1.24176 18600 ft 355 kts 148°
2026-05-05 11:27 52.06630 -1.22083 18444 ft 325 kts 149°
2026-05-05 11:27 52.04794 -1.20146 17975 ft 309 kts 149°
2026-05-05 11:27 52.03016 -1.18275 17287 ft 301 kts 148°
2026-05-05 11:27 52.01272 -1.16445 16608 ft 295 kts 148°
2026-05-05 11:28 51.99582 -1.14672 15969 ft 285 kts 148°
2026-05-05 11:28 51.97940 -1.12949 15413 ft 275 kts 147°
2026-05-05 11:28 51.96373 -1.11303 15105 ft 265 kts 147°
2026-05-05 11:28 51.94924 -1.09484 14758 ft 266 kts 139°
2026-05-05 11:29 51.93489 -1.07490 14420 ft 275 kts 140°
2026-05-05 11:29 51.92024 -1.05474 14055 ft 277 kts 140°
2026-05-05 11:29 51.90559 -1.03466 13684 ft 275 kts 140°
2026-05-05 11:29 51.89104 -1.01473 13288 ft 274 kts 139°
2026-05-05 11:30 51.87649 -0.99484 12944 ft 274 kts 139°
2026-05-05 11:30 51.86203 -0.97489 12586 ft 271 kts 137°
2026-05-05 11:30 51.84850 -0.95299 12222 ft 281 kts 139°
2026-05-05 11:30 51.83125 -0.93883 11847 ft 278 kts 167°
2026-05-05 11:31 51.81211 -0.93632 11379 ft 275 kts 180°
2026-05-05 11:31 51.79330 -0.93650 10895 ft 274 kts 181°
2026-05-05 11:31 51.77428 -0.93696 10438 ft 272 kts 181°
2026-05-05 11:31 51.75564 -0.93740 10062 ft 261 kts 181°
2026-05-05 11:32 51.73769 -0.93782 9415 ft 256 kts 181°
2026-05-05 11:32 51.71998 -0.93829 8712 ft 254 kts 181°
2026-05-05 11:32 51.70245 -0.93890 8049 ft 250 kts 181°
2026-05-05 11:32 51.68512 -0.93969 7387 ft 248 kts 180°
2026-05-05 11:33 51.66797 -0.94073 6739 ft 246 kts 181°
2026-05-05 11:33 51.65099 -0.94191 6099 ft 242 kts 180°
2026-05-05 11:33 51.63424 -0.94312 5420 ft 240 kts 181°
2026-05-05 11:33 51.61760 -0.94456 5058 ft 241 kts 181°
2026-05-05 11:34 51.60085 -0.94606 5005 ft 241 kts 181°
2026-05-05 11:34 51.58398 -0.94737 5008 ft 242 kts 181°
2026-05-05 11:34 51.56728 -0.94875 4842 ft 238 kts 181°
2026-05-05 11:34 51.55064 -0.94988 4357 ft 240 kts 175°
2026-05-05 11:35 51.53506 -0.94230 3992 ft 232 kts 147°
2026-05-05 11:35 51.52362 -0.92490 3567 ft 226 kts 119°
2026-05-05 11:35 51.51715 -0.90255 3280 ft 218 kts 110°
2026-05-05 11:35 51.51116 -0.88030 3011 ft 217 kts 111°
2026-05-05 11:36 51.50511 -0.85806 3012 ft 218 kts 109°
2026-05-05 11:36 51.49904 -0.83568 3013 ft 218 kts 110°
2026-05-05 11:36 51.49296 -0.81328 3018 ft 219 kts 110°
2026-05-05 11:36 51.48689 -0.79095 3007 ft 219 kts 110°
2026-05-05 11:37 51.48082 -0.76862 3012 ft 218 kts 110°
2026-05-05 11:37 51.47646 -0.74565 3018 ft 214 kts 94°
2026-05-05 11:37 51.47622 -0.72199 2959 ft 213 kts 87°
2026-05-05 11:37 51.47640 -0.69821 2727 ft 212 kts 86°
2026-05-05 11:38 51.47655 -0.67452 2450 ft 212 kts 86°
2026-05-05 11:38 51.47668 -0.65148 2176 ft 205 kts 86°
2026-05-05 11:38 51.47678 -0.62996 1922 ft 179 kts 85°
2026-05-05 11:38 51.47686 -0.61135 1675 ft 157 kts 86°
2026-05-05 11:39 51.47695 -0.59470 1469 ft 144 kts 86°
2026-05-05 11:39 51.47704 -0.57886 1275 ft 139 kts 84°
2026-05-05 11:39 51.47712 -0.56343 1082 ft 140 kts 85°
2026-05-05 11:39 51.47721 -0.54789 894 ft 137 kts 86°
2026-05-05 11:40 51.47732 -0.53252 723 ft 138 kts 86°
2026-05-05 11:40 51.47749 -0.51724 538 ft 137 kts 88°
2026-05-05 11:40 51.47735 -0.50193 352 ft 137 kts 85°
2026-05-05 11:40 51.47752 -0.48683 149 ft 135 kts 87°
2026-05-05 11:41 51.47757 -0.47225 90 ft 120 kts 89°
2026-05-05 11:41 51.47764 -0.45984 86 ft 98 kts 90°
2026-05-05 11:41 51.47742 -0.45466 86 ft 14 kts 142°
2026-05-05 11:41 51.47666 -0.45468 86 ft 13 kts 177°
2026-05-05 11:42 51.47600 -0.45531 86 ft 15 kts 255°
2026-05-05 11:42 51.47596 -0.45745 89 ft 24 kts 270°
2026-05-05 11:42 51.47595 -0.46060 90 ft 30 kts 269°
2026-05-05 11:42 51.47593 -0.46449 86 ft 39 kts 270°
2026-05-05 11:43 51.47591 -0.46785 86 ft 20 kts 271°
2026-05-05 11:43 51.47582 -0.46970 90 ft 20 kts 268°
2026-05-05 11:43 51.47583 -0.47220 90 ft 23 kts 268°
2026-05-05 11:43 51.47582 -0.47422 88 ft 17 kts 267°
2026-05-05 11:44 51.47581 -0.47673 90 ft 28 kts 270°
2026-05-05 11:44 51.47580 -0.47946 90 ft 23 kts 269°
2026-05-05 11:44 51.47579 -0.48118 88 ft 14 kts 270°
2026-05-05 11:44 51.47579 -0.48333 90 ft 16 kts 269°
2026-05-05 11:45 51.47544 -0.48470 88 ft 16 kts 203°
2026-05-05 11:45 51.47488 -0.48573 88 ft 12 kts 268°
2026-05-05 11:45 51.47485 -0.48763 89 ft 19 kts 268°
2026-05-05 11:45 51.47465 -0.48894 90 ft 4 kts 185°
2026-05-05 11:46 51.47435 -0.48892 86 ft 6 kts 179°
2026-05-05 11:46 51.47414 -0.48891 86 ft 2 kts 179°
2026-05-05 11:46 51.47407 -0.48891 87 ft 0 kts 179°